Estación Meteorológica Peña el Pijo (Robertgarden) [ 02/19/20 14:36:36 CET ]

Fecha Hora Presion(HPa) Temp (°C) Humedad % Rocio (°C) Viento ( m/s) Direccion Lluvia 1Hora(mm) Lluvia 24H(mm) LLuvia Total(mm)
2020-Jan-17 01:09:36 1016.800 - - - - N     39.88
2020-Jan-17 02:11:49 1016.300 - - - - N     39.88
2020-Jan-17 03:09:08 1016.500 - - - - N     39.88
2020-Jan-17 04:09:03 1016.300 - - - - N     39.88
2020-Jan-17 05:09:06 1016.600 - - - - N     39.88
2020-Jan-17 06:09:22 1016.600 - - - - N     39.88
2020-Jan-17 07:09:26 1017.200 - - - - N     39.88
2020-Jan-17 08:09:05 1017.400 - - - - N     39.88
2020-Jan-17 09:09:03 1017.800 - - - - N     39.88
2020-Jan-17 10:09:20 1017.900 - - - - N     39.88
2020-Jan-17 11:09:31 1018.800 - - - - N     39.88
2020-Jan-17 12:09:15 1019.100 - - - - N     39.88
2020-Jan-17 13:09:21 1018.500 - - - - N     39.88
2020-Jan-17 14:09:27 1017.500 - - - - N     39.88
2020-Jan-17 15:09:02 1017.100 - - - - N     39.88
2020-Jan-17 16:08:45 1017.500 - - - - N     39.88
2020-Jan-17 17:09:06 1017.400 - - - - N     39.88
2020-Jan-17 18:08:58 1017.900 - - - - N     39.88
2020-Jan-17 19:09:11 1019.000 - - - - N     39.88
2020-Jan-17 20:09:10 1019.200 - - - - N     39.88
2020-Jan-17 21:09:17 1019.300 - - - - N     39.88
2020-Jan-17 22:09:31 1019.400 - - - - N     39.88
2020-Jan-17 23:09:14 1019.400 - - - - N     39.88

Temperatura Máxima:    Temperatura Mínima:
Presión Máxima:1019.400 Hpa    Presión Mínima:1016.300 Hpa


Volver